EPWAEPGD

Guest
Details From EPWA - Warsaw Okecie - Frederic Chopin
To EPGD - Lech Walesa
Flight Number -
Tags Generated
Created
Modified
Stats Distance 160 nm / 296 km
Max Altitude 0 ft / 0 m
Waypoints 2
Social Downloads 12
Likes 0
Share VATSIM

Download

Looking for another format? Having issues loading an existing format? Contact us
Advertisement - Login to hide

Notes

Generated

Route

EPWA EPGD

ID Type Via Altitude Latitude Longitude Leg Dist Tot Dist Heading (true) Name
O EPWA APT - 0 ft / 0 m 52.17148˚ 20.94671˚ - 0 nm - -
O EPGD APT - 0 ft / 0 m 54.38107˚ 18.45205˚ 160 nm 160 nm 327° / 325° -

Altitude Profile

Advertisement - Login to hide

EPWA

Details ICAO EPWA (WAW)
Name WARSZAWA Okecie
Region Poland
Timezone Europe/Warsaw (UTC+2.0)
Stats Elevation 328 ft / 100 m (AMSL)
Location 52.165091° 20.966923°
Runways 2
Magnetic Variation 5.869° E

METAR

EPWA 241430Z 29009KT 240V320 9999 SCT033TCU 18/10 Q1012 NOSIG

Decode

TAF

TAF EPWA 241430Z 2415/2515 28012KT 9999 SCT030 TEMPO 2415/2420 SHRA BKN012 BKN025CB PROB30 TEMPO 2415/2418 TSRA BKN012CB BECMG 2418/2421 VRB04KT PROB40 2500/2506 BKN006 BECMG 2506/2508 27010KT TEMPO 2508/2515 SHRA BKN025CB

Decode

Departure Runways

ID Width Length Bearing (true) Bearing (mag) Surface Threshold Offset Overrun Length
11 164 ft / 50 m 9,163 ft / 2,793 m 114.64° 108.77° Asphalt 0 ft / 0 m 476 ft / 145 m
15 197 ft / 60 m 12,112 ft / 3,692 m 151.85° 145.98° Asphalt 0 ft / 0 m 0 ft / 0 m
29 164 ft / 50 m 9,163 ft / 2,793 m 294.67° 288.80° Asphalt 1,608 ft / 490 m 0 ft / 0 m
33 197 ft / 60 m 12,112 ft / 3,692 m 331.87° 326.00° Asphalt 0 ft / 0 m 0 ft / 0 m

EPGD

Details ICAO EPGD (GDN)
Name LECH WALESA
Region Poland
Timezone Europe/Warsaw (UTC+2.0)
Stats Elevation 489 ft / 149 m (AMSL)
Location 54.376167° 18.471884°
Runways 1
Magnetic Variation 5.523° E

METAR

EPGD 241430Z 34012KT 9999 FEW039 16/08 Q1014

Decode

TAF

TAF EPGD 241130Z 2412/2512 34010KT 9999 SCT040 BECMG 2421/2423 27006KT PROB40 TEMPO 2503/2512 -SHRA BKN025CB

Decode

Destination Runways

ID Width Length Bearing (true) Bearing (mag) Surface Threshold Offset Overrun Length
11 148 ft / 45 m 9,158 ft / 2,791 m 112.96° 107.44° Asphalt 0 ft / 0 m 0 ft / 0 m
29 148 ft / 45 m 9,158 ft / 2,791 m 293.00° 287.48° Asphalt 0 ft / 0 m 0 ft / 0 m

Approach Navaids

Runway Type Ident Frequency Range Bearing (true) Bearing (mag) Slope Elevation
29 Localiser IGDA 110.30 MHz 18 nm / 33 km 292.96° 287.44° - 489 ft / 149 m (AMSL)
29 Glidescope IGDA 110.30 MHz 10 nm / 19 km 292.98° 287.46° 2.90° 489 ft / 149 m (AMSL)
29 DME IGDA 110.30 MHz 18 nm / 33 km - - - 492 ft / 150 m (AMSL)

Popular Alternatives